Temp
8 9 7 8 11 13 13 13 14 15 18 18 18 18 17 16 16 16 16 17 17 17 16 17 17 18 17 16 17 17 17 17 17 17 17 17 17 17 17 16 16 16 16 16
8 9 10 10 12 13 12 13 13 16 16 19 17 19 17 16 16 16 16 17 17 17 16 16 16 17 17 15 15 17 17 16 17 17 17 17 17 17 17 16 16 16 16 16
10 10 11 11 12 12 12 11 11 14 17 18 17 16 16 15 16 16 17 17 17 16 16 16 16 16 16 16 16 16 16 16 17 17 17 17 17 17 17 16 16 16 16 16
10 12 12 11 13 14 13 12 11 14 16 17 18 15 15 16 16 16 16 17 17 15 15 16 16 16 15 16 17 16 16 16 17 17 17 17 16 16 16 16 16 16 16 15
10 11 12 13 14 15 15 15 13 13 16 18 16 15 16 16 17 16 16 18 17 15 15 16 16 16 16 16 16 17 17 17 17 17 17 17 17 16 16 16 16 16 16 15
11 12 13 13 14 15 15 13 14 15 15 14 16 15 16 16 18 16 16 16 17 15 15 16 16 17 16 16 16 17 17 17 17 17 17 17 17 17 16 16 16 16 15 15
12 13 13 14 14 14 15 13 13 13 13 14 16 17 16 16 18 18 16 16 16 16 15 15 15 16 16 16 16 17 17 17 17 17 18 17 17 17 17 16 16 16 15 15
11 12 13 15 15 14 15 14 13 12 13 13 15 15 18 17 18 19 17 17 17 16 16 16 15 16 16 16 16 16 16 17 17 18 18 17 17 17 17 17 16 16 16 16
11 13 15 15 16 16 15 14 16 14 15 14 14 17 18 17 16 17 17 16 16 15 16 16 15 16 16 16 16 16 16 16 17 18 18 17 17 17 17 17 17 17 17 17
11 13 14 16 16 16 16 16 15 14 14 15 13 16 15 15 15 16 16 16 15 15 14 14 14 14 15 15 16 16 16 16 17 17 17 17 17 17 17 17 17 17 17 17
9 12 14 16 15 15 15 15 16 15 13 13 13 15 16 17 16 15 17 16 15 12 9 8 8 10 11 13 14 14 15 15 16 16 16 16 17 17 16 17 17 17 17 17
9 9 13 14 15 15 15 15 15 13 16 13 13 14 12 15 16 16 16 15 11 10 7 6 8 8 9 9 10 11 10 11 13 14 14 15 15 15 15 16 15 16 16 17
7 11 10 11 14 15 15 15 16 15 14 14 13 15 13 11 14 15 15 11 9 7 6 5 7 7 7 7 7 8 9 9 9 10 10 11 13 13 14 14 14 14 15 15
8 9 11 12 13 14 15 15 16 15 13 13 13 16 16 14 12 10 8 7 6 6 6 5 4 6 5 5 6 6 7 7 8 8 9 8 9 9 10 10 11 11 12 13
7 8 10 12 13 14 14 15 14 14 14 14 16 16 16 13 11 9 7 7 7 6 5 5 3 3 4 3 3 4 4 4 5 6 6 6 6 6 7 7 8 9 8 8
5 7 8 10 12 13 13 13 13 14 14 14 15 15 14 13 9 9 8 8 7 7 6 5 5 3 3 3 2 2 2 3 4 4 4 4 4 5 5 5 5 5 6 6
4 6 7 9 10 10 11 11 12 13 14 15 14 16 13 13 10 9 8 7 7 6 5 4 3 2 2 2 2 2 2 2 3 3 3 3 3 3 4 4 4 4 5 5
5 6 8 9 8 9 14 11 13 14 14 12 14 13 12 12 11 10 8 8 7 6 5 3 2 1 2 2 2 2 2 1 1 1 1 1 1 1 2 2 2 2 3 3
4 5 8 10 9 9 12 11 10 11 12 12 13 13 10 7 9 10 7 7 6 4 2 1 1 1 1 1 1 1 1 1 0 -0 -0 -0 0 0 0 0 0 1 1 1
4 4 5 8 9 9 11 8 8 10 11 9 11 10 6 7 9 9 4 2 1 0 1 0 1 1 0 -0 0 0 -0 -1 -1 -1 -1 -1 -1 -1 -1 -1 -1 -1 -0 -0
3 3 4 6 8 5 6 7 7 8 11 6 6 7 5 8 6 2 0 -0 0 -0 -1 1 0 -0 -0 -1 -1 -1 -2 -2 -2 -2 -2 -2 -2 -2 -2 -2 -2 -1 -1 -1
4 4 3 4 6 6 5 6 8 6 6 6 6 6 3 2 1 1 -0 -1 -1 -1 -1 -1 -2 -2 -1 -1 -1 -2 -2 -3 -3 -3 -3 -3 -3 -3 -3 -2 -2 -2 -2 -2
3 5 4 6 6 6 4 4 3 2 4 6 6 5 2 1 1 -0 -1 -2 -2 -2 -2 -2 -2 -3 -3 -2 -2 -3 -4 -4 -4 -3 -3 -3 -3 -3 -3 -3 -3 -3 -3 -3
0 -2 1 4 5 6 5 3 3 3 4 4 4 3 2 2 0 -1 -2 -3 -3 -3 -2 -2 -3 -4 -4 -4 -3 -3 -4 -4 -4 -4 -4 -4 -4 -4 -4 -4 -4 -4 -4 -4
2 -1 -1 -0 1 2 4 2 4 3 3 3 3 2 2 0 -0 -1 -2 -3 -3 -3 -3 -3 -3 -4 -5 -5 -5 -5 -5 -5 -5 -5 -5 -5 -4 -4 -4 -4 -4 -4 -4 -4
-1 2 3 6 6 3 3 -0 -3 -1 1 1 1 2 1 0 -1 -2 -3 -3 -3 -3 -3 -3 -3 -4 -5 -5 -5 -5 -5 -5 -5 -5 -5 -5 -5 -5 -5 -5 -5 -5 -5 -5
Height
763 761 779 769 756 746 753 760 763 764 753 758 756 754 760 764 768 775 779 781 784 787 791 794 797 804 809 814 817 819 825 830 833 838 841 846 848 850 853 855 858 860 863 865
762 760 760 758 757 754 761 761 768 762 755 751 756 755 761 765 770 771 776 780 783 786 789 793 795 801 806 811 815 818 823 824 832 837 840 844 847 849 852 854 856 859 861 864
753 758 756 761 761 759 769 777 779 772 762 750 756 769 766 768 770 772 776 779 782 784 785 789 793 797 803 809 814 816 822 826 830 835 838 843 846 849 850 852 854 858 859 862
758 756 755 758 758 755 765 775 785 773 766 764 752 787 775 771 773 774 776 778 779 784 786 788 791 795 800 806 811 816 821 823 829 832 835 837 839 843 845 848 852 856 858 860
763 756 752 753 755 752 757 762 774 778 766 758 764 782 773 770 772 772 775 774 777 780 781 783 788 792 797 803 808 813 819 822 825 828 831 834 838 842 844 847 850 853 856 857
753 749 749 749 749 748 751 770 775 773 773 785 768 775 775 770 763 768 770 771 773 778 780 781 784 790 794 799 804 810 815 819 824 826 829 832 835 838 840 843 846 850 852 854
758 753 749 748 751 751 751 772 780 789 787 782 769 769 766 759 752 752 761 765 767 770 774 776 779 784 789 792 797 803 809 813 819 822 825 828 831 833 836 838 842 845 847 850
764 764 755 745 748 749 750 761 772 788 786 785 772 779 755 742 740 744 751 752 757 764 768 771 774 777 783 787 790 795 801 806 811 815 818 823 827 828 831 834 836 839 841 843
767 759 747 745 741 742 747 758 742 767 767 777 775 756 744 742 744 743 747 754 760 762 765 768 773 775 778 782 786 788 793 798 803 807 813 817 821 823 827 830 833 834 836 838
763 762 747 741 738 738 743 737 755 759 774 773 774 762 757 748 745 741 743 746 752 757 760 762 767 772 776 780 783 788 790 793 798 802 807 811 815 818 821 825 828 829 831 834
769 754 750 740 742 745 744 745 741 745 755 766 775 753 727 726 734 736 734 738 744 754 760 761 764 770 773 777 781 785 789 790 793 797 801 806 809 813 816 819 820 822 825 827
768 765 753 749 738 737 739 741 743 758 748 758 760 747 735 726 724 723 728 733 744 749 757 763 765 768 773 776 779 782 787 789 791 793 797 800 804 807 811 814 816 818 819 821
770 756 770 762 747 739 740 739 739 746 751 754 763 746 731 735 728 725 726 737 744 752 758 762 765 768 775 778 780 783 785 789 791 793 795 797 799 801 804 807 810 813 815 816
772 765 752 748 746 736 740 738 736 742 756 754 750 737 730 731 734 736 743 748 751 756 760 764 769 770 775 779 781 783 785 788 789 792 795 797 797 797 800 802 804 807 809 811
775 772 757 743 737 733 733 732 736 739 739 745 734 735 728 735 739 741 746 751 754 759 763 765 770 773 775 778 781 783 785 787 788 790 791 793 795 797 797 799 800 803 805 805
783 778 767 756 742 739 739 736 733 730 731 731 732 731 723 728 739 743 744 745 749 755 758 761 765 770 774 777 780 782 784 786 787 789 791 792 794 795 796 798 799 801 802 802
785 776 773 762 755 752 747 734 731 727 723 720 731 715 725 728 734 736 741 743 743 746 751 756 760 764 769 773 777 780 783 785 787 788 790 792 793 794 795 796 797 798 799 800
779 774 767 759 765 763 713 721 717 716 712 719 715 717 718 717 719 724 726 728 734 738 743 749 754 761 766 770 774 777 781 785 787 789 790 792 793 794 795 796 797 798 798 799
786 779 762 751 754 742 716 721 727 726 713 711 710 709 718 727 725 723 727 730 734 739 745 751 757 763 768 772 775 778 781 784 787 789 791 792 793 794 794 796 797 797 797 798
785 785 782 758 747 746 719 728 730 722 718 716 710 710 724 727 729 722 730 732 737 741 745 753 760 766 771 776 779 781 784 786 788 789 791 792 794 795 795 795 796 796 797 797
785 788 780 767 751 758 736 733 732 742 717 724 723 719 725 721 724 730 733 737 739 743 748 753 759 764 770 775 779 783 785 788 789 790 790 792 793 795 795 796 796 796 796 797
771 777 783 777 766 762 737 737 733 732 728 726 724 724 731 734 737 738 740 743 745 747 752 755 760 765 770 774 777 780 783 786 788 789 790 791 792 794 795 796 796 796 796 796
774 755 761 751 745 730 733 732 732 733 731 728 726 727 731 735 738 741 744 747 749 752 755 758 761 766 771 774 777 780 784 786 788 789 790 791 792 793 795 795 796 796 796 795
766 769 765 748 729 725 726 728 727 726 726 726 726 728 730 732 737 741 744 747 750 754 757 760 763 767 771 774 776 779 782 784 787 788 789 790 791 792 793 794 795 796 796 795
757 766 765 758 738 734 725 725 722 722 723 725 726 727 729 732 736 739 743 746 749 753 757 761 764 767 771 774 776 779 781 783 785 787 788 789 790 791 793 794 795 795 794 795
754 741 745 723 717 723 723 726 726 724 722 722 725 727 728 730 734 738 742 745 749 752 756 760 764 768 771 774 776 778 780 782 784 786 787 788 790 792 793 794 794 794 794 794
Wind_Speed
2 4 5 4 6 8 11 6 6 14 12 10 11 10 9 10 15 14 13 13 13 12 10 21 27 30 26 27 33 32 32 28 26 24 25 23 23 23 21 18 20 19 18 14
2 6 6 4 6 12 12 9 8 4 17 4 7 11 11 11 12 16 16 15 16 13 12 15 21 24 21 25 29 33 32 31 27 28 28 27 24 22 21 19 19 17 17 15
7 11 9 6 9 12 4 4 3 10 15 2 7 1 7 3 7 10 9 10 15 12 15 13 18 23 22 25 30 34 32 33 32 29 27 25 22 21 20 20 22 19 18 17
8 7 7 7 13 12 5 12 14 14 5 4 3 4 2 4 10 14 14 14 18 12 10 11 17 21 23 25 29 30 31 30 31 29 30 30 27 24 25 23 21 19 17 16
4 5 6 6 10 7 6 15 12 5 5 2 4 5 4 6 10 10 14 18 18 13 14 15 19 22 25 28 31 31 29 28 28 26 29 29 28 26 24 23 21 20 19 17
5 3 3 3 6 3 14 9 5 6 2 3 4 5 2 8 13 9 14 15 15 14 14 14 20 23 24 27 31 32 27 29 28 24 28 29 27 26 24 26 24 23 23 21
4 2 2 1 4 2 15 12 3 2 2 3 3 4 7 11 11 17 18 17 17 17 15 15 16 22 26 29 31 32 31 30 32 29 27 29 28 27 26 28 27 26 25 25
2 3 5 2 2 5 8 7 4 6 7 4 5 5 6 11 14 15 16 20 20 18 15 15 18 26 26 31 33 33 33 33 36 33 31 30 29 28 29 29 31 29 28 29
3 1 3 5 1 4 6 5 5 6 1 4 4 4 3 4 7 14 15 12 12 15 15 14 15 22 24 26 31 34 33 31 34 35 32 32 31 30 29 27 31 31 31 32
3 3 6 4 2 5 6 2 1 1 7 6 5 4 6 8 10 14 16 17 15 13 11 12 12 17 18 20 25 29 28 29 29 32 33 33 31 30 31 31 30 32 31 33
3 2 4 3 3 3 1 3 3 2 4 5 4 9 6 14 12 15 17 17 18 12 7 7 10 16 18 18 17 17 20 23 24 23 26 30 31 35 34 33 33 32 34 33
2 0 3 6 4 3 3 2 2 4 3 2 3 5 5 6 15 17 16 13 9 12 10 7 10 15 14 16 16 15 10 12 13 16 19 21 25 28 26 25 22 26 29 28
5 2 3 6 5 1 4 4 4 3 2 4 4 5 3 6 2 8 13 12 12 12 10 8 8 9 10 10 12 12 12 9 8 9 10 11 13 16 21 20 19 21 21 22
1 2 3 6 4 3 4 5 4 5 3 3 5 6 4 4 2 6 8 7 8 9 8 6 5 7 10 9 10 11 10 10 10 9 9 9 8 8 10 11 13 12 13 15
1 3 3 4 4 1 2 8 8 9 6 6 2 4 4 6 7 6 6 7 9 8 7 7 7 6 10 11 11 10 9 8 8 9 8 7 6 6 6 7 7 9 8 9
2 2 2 3 6 7 5 7 7 12 7 9 6 9 7 3 7 6 7 11 12 11 11 11 10 11 12 11 10 9 8 7 7 7 6 6 5 4 4 4 4 6 6 7
2 2 2 4 2 3 6 12 11 5 8 9 11 13 5 4 9 11 12 12 13 12 12 11 11 13 17 15 13 12 10 8 7 7 6 5 4 3 2 2 2 3 4 5
2 2 1 2 2 4 3 1 3 16 16 9 8 8 12 9 8 5 7 15 13 13 13 12 14 17 21 17 15 13 11 9 9 8 7 5 5 4 3 3 2 1 2 3
3 2 3 3 4 6 7 4 6 7 10 11 15 8 6 5 4 2 4 2 5 6 6 12 18 21 18 16 14 15 14 13 11 9 6 5 5 5 4 4 3 3 3 3
4 1 2 2 4 7 3 1 2 1 9 3 3 9 9 6 4 5 1 5 8 14 20 22 22 19 15 10 10 12 12 12 10 8 6 4 3 3 3 3 3 3 3 3
3 2 7 7 4 6 5 1 3 5 5 4 5 4 6 4 2 5 8 8 12 18 22 26 24 22 17 13 12 11 11 8 6 5 6 5 4 4 3 3 4 4 4 4
7 7 4 3 3 8 6 3 6 3 3 3 4 3 4 6 5 5 7 8 10 13 18 22 22 20 16 14 15 15 14 10 8 8 7 6 5 4 3 4 5 5 6 7
3 6 5 9 6 3 5 4 2 4 3 2 1 1 6 7 5 7 6 8 7 12 15 19 21 17 13 12 14 16 11 9 7 8 7 6 6 5 5 5 6 7 8 9
3 2 3 2 6 10 6 5 7 7 6 5 4 4 6 6 7 6 7 7 6 12 14 17 19 17 14 12 12 13 11 9 9 9 8 7 8 7 7 7 7 8 8 8
3 3 4 7 8 7 12 7 6 6 5 5 4 6 7 7 7 7 7 7 9 13 15 18 17 16 15 14 13 12 11 10 10 10 9 8 7 7 7 7 7 6 7 6
6 8 5 9 7 5 4 2 4 4 7 7 6 4 4 7 8 6 6 10 14 14 17 16 16 16 16 15 13 12 11 11 12 11 9 8 7 6 6 5 5 5 5 6
Wind_Direction
139 166 171 207 54 112 105 122 126 188 232 151 201 154 144 131 123 133 149 162 168 164 153 160 167 179 183 177 173 163 159 164 168 164 164 166 161 162 166 169 171 171 171 175
132 119 137 70 80 94 77 128 201 317 275 143 162 177 136 143 151 156 160 172 176 166 160 163 165 174 172 174 166 163 169 165 173 175 172 174 168 169 170 172 174 179 180 178
128 139 123 152 159 96 75 103 150 213 247 140 116 71 140 148 125 138 159 168 184 177 167 164 165 171 167 170 168 169 169 169 176 178 174 173 171 172 171 173 177 182 186 189
76 161 164 133 155 146 133 199 212 226 253 177 122 201 235 193 153 164 171 184 190 176 179 167 165 173 170 175 176 173 177 177 178 180 178 177 175 178 185 182 183 184 191 194
144 171 127 157 158 186 161 161 199 240 252 85 347 88 257 161 199 175 180 189 195 188 183 175 181 176 173 177 178 183 186 184 184 188 187 184 186 189 185 187 190 193 194 200
107 176 159 175 133 167 125 117 241 293 354 324 200 120 249 193 193 196 190 186 192 187 189 181 177 179 179 182 180 182 190 190 192 196 194 192 192 188 187 188 193 198 199 200
56 151 354 265 122 54 142 140 148 142 214 201 230 114 225 193 196 193 185 189 189 191 186 182 176 180 181 184 185 187 195 195 198 203 201 200 201 199 197 197 200 199 198 203
47 119 192 224 194 151 148 155 161 159 173 190 140 221 249 189 191 191 189 191 190 190 186 186 185 183 188 188 184 186 194 197 202 202 208 208 210 207 208 208 207 206 206 210
108 345 312 228 179 166 196 212 160 109 149 83 214 266 315 170 178 192 185 178 187 187 185 188 188 192 189 190 192 192 194 198 199 202 208 209 213 216 220 218 216 216 217 219
224 124 226 224 146 243 169 199 92 2 150 182 242 198 219 191 209 188 178 182 182 181 179 179 172 176 182 190 198 198 197 198 200 208 213 214 215 220 225 225 223 223 228 227
229 191 235 91 184 194 161 224 253 145 139 153 135 243 191 195 186 179 181 183 177 174 161 139 124 134 142 161 171 178 192 195 194 200 212 224 229 229 232 235 230 231 237 237
47 334 153 201 235 166 153 201 217 124 273 208 175 274 358 231 189 181 187 174 163 154 144 133 129 128 140 148 153 160 167 171 181 193 206 216 224 229 232 233 237 237 243 246
350 296 87 358 324 179 193 202 180 135 131 248 157 272 349 356 256 218 174 161 154 144 143 139 131 129 145 152 153 161 166 180 181 188 188 185 188 198 209 216 226 232 231 233
1 298 222 201 212 171 193 212 180 154 184 234 219 294 333 266 254 157 129 115 127 138 140 129 125 132 151 161 165 171 173 181 182 187 191 194 187 181 185 196 206 215 219 222
221 257 324 281 294 232 264 226 205 213 196 201 142 272 278 226 227 172 122 117 149 158 161 159 155 154 161 163 167 172 172 178 185 187 191 198 207 214 214 225 223 237 249 239
340 244 14 276 257 229 254 259 251 230 220 242 209 248 223 81 125 164 197 170 176 184 184 181 175 164 165 166 162 162 164 170 175 171 174 192 208 219 235 250 257 263 266 274
161 201 169 240 1 347 279 224 219 214 209 204 212 227 173 175 192 193 193 193 193 183 171 168 165 157 160 163 165 166 165 165 162 164 162 165 167 168 191 228 259 279 291 298
223 202 136 247 43 252 247 345 234 222 231 206 237 187 191 200 207 205 203 193 192 181 175 166 157 151 157 155 157 154 156 155 151 147 142 138 139 131 125 117 99 36 355 333
227 293 224 214 213 303 298 197 174 176 257 220 226 223 182 139 82 275 177 135 157 148 124 128 139 150 155 158 160 158 153 151 148 144 139 135 135 133 122 112 95 69 43 31
186 314 293 223 222 220 265 25 334 209 276 34 279 196 165 149 158 234 104 107 99 110 126 127 141 140 140 144 154 154 149 152 148 146 138 127 117 114 108 83 70 49 36 31
164 179 226 240 267 290 263 321 315 107 265 351 344 20 137 196 288 114 114 86 111 125 127 137 144 145 151 153 157 147 147 138 141 135 131 127 117 105 91 77 62 48 46 50
169 168 196 180 236 265 157 132 174 227 318 338 357 46 88 114 99 95 99 110 120 127 133 142 137 147 154 159 162 157 158 160 160 151 144 132 120 115 91 81 81 76 65 67
246 195 182 195 214 237 216 214 220 180 215 255 256 92 140 136 159 150 143 134 134 132 137 149 146 146 150 157 168 158 155 159 154 144 133 123 118 102 83 77 70 70 65 63
266 179 211 28 248 241 221 233 214 199 212 189 186 169 174 161 161 153 145 141 139 144 148 157 154 151 152 156 158 161 158 155 150 137 128 122 110 104 90 82 71 65 57 52
200 110 195 263 278 292 274 239 272 236 212 196 177 178 192 157 172 162 160 153 153 157 161 165 163 162 164 161 157 161 160 157 148 140 134 127 122 112 106 92 73 60 53 33
188 201 189 243 229 187 253 257 317 238 220 199 193 194 177 170 166 153 160 162 158 159 171 171 174 173 169 170 166 166 167 164 156 147 143 131 127 114 99 86 82 70 47 32